Weather Roundup
Issued by NWS Chicago, IL

Home | Current Version | Previous Version | Graphics & Text | Print | Product List | Glossary On
Versions: 1 2 3 4 5 6 7 8 9 10 11 12 13 14 15 16 17 18 19 20 21 22 23 24 25 26 27 28 29 30 31 32 33 34 35 36 37 38 39 40 41 42 43 44 45 46 47 48 49 50
000
NZUS59 KLOT 262303
HRRLOT

CHICAGO AREA WEATHER ROUNDUP
NATIONAL WEATHER SERVICE CHICAGO/ROMEOVILLE IL
600 PM CDT THU MAY 26 2016

NOTE: "FAIR" INDICATES FEW OR NO CLOUDS BELOW 12,000 FEET WITH NO
SIGNIFICANT WEATHER AND/OR OBSTRUCTIONS TO VISIBILITY.

* THESE STATIONS ARE NOT UNDER NWS QUALITY CONTROL. THEY ALSO MAY NOT
  REPORT WEATHER SUCH AS PRECIPITATION OR FOG.

ILZ005-006-012>014-019>023-270000-
NORTHEAST ILLINOIS

CITY           SKY/WX    TMP DP  RH WIND       PRES   REMARKS
OHARE          PTSUNNY   82  64  54 SW6       29.81F HX  83
MIDWAY         PTSUNNY   85  62  46 S9        29.81F HX  85
AURORA         MOSUNNY   83  66  56 S5        29.82F HX  85
LANSING*       SUNNY     82  62  49 SW9       29.83F HX  83
WAUKEGAN       MOSUNNY   81  63  54 SW7       29.81F HX  82
DUPAGE AIRPORT SUNNY     83  63  50 SW5       29.82F HX  84
WHEELING       SUNNY     83  61  47 SW8       29.82F HX  83
MORRIS*        SUNNY     87  58  38 W5        29.80S HX  86
$$

WIZ051-052-058>065-066-070>072-270000-
SOUTHEAST WISCONSIN

CITY           SKY/WX    TMP DP  RH WIND       PRES   REMARKS
MILWAUKEE      PTSUNNY   84  59  42 W7        29.80F HX  84
KENOSHA*       SUNNY     81  62  52 SW6       29.81F HX  82
RACINE*        MOSUNNY   83  61  47 SW6       29.82F HX  83
BURLINGTON     SUNNY     82  57  43 CALM      29.82R HX  81
WAUKESHA       MOSUNNY   81  54  39 W8        29.81F HX  80
$$

INZ001>003-010>013-019-020-270000-
NORTHWEST INDIANA

CITY           SKY/WX    TMP DP  RH WIND       PRES   REMARKS
GARY*          MOSUNNY   84  70  61 SW9       29.84F HX  88
MICHIGAN CITY* NOT AVBL
RENSSELAER*    NOT AVBL
VALPARAISO     MOSUNNY   82  60  47 SW10      29.86F HX  82
$$

LMZ740>746-270000-
SOUTHERN LAKE MICHIGAN

STATION/POSITION TIME  SKY/WX   TEMP WIND        PRES    VSBY
                                AIR  DIR/SP/G
                 (UTC)          (F)  (DEG/KT/KT) (MB)    (MI)
HARRISON CRIB    2200            81  220/ 13/ 13   N/A
BURNHAM HARBOR   2300            83  190/  3/ 13   N/A
CALUMET HARBOR   2200                210/  6/ 13 1010.2F
BURNS HARBOR     2200            79  220/  8/ 12 1011.5S
MICHIGAN CITY    2200            76  320/  2/  3   N/A
$$

ABBREVIATIONS USED IN REMARKS
   TC - TEMPERATURE IN CELSIUS
  WCI - WIND CHILL INDEX
   HX - HEAT INDEX
  VSB - VISIBILITY
$$



USA.gov is the U.S. government's official web portal to all federal, state and local government web resources and services.